Frederick, MD

9:10 PM EST on February 06, 2016 (GMT -0500)
Frederick Municipal

Weather History for KFDK - August, 2014

Change the Weather History Date:

Sunday, August 17, 2014

  Actual Average (KHGR) Record (KHGR)
Temperature  
Mean Temperature 73 °F 73 °F  
Max Temperature 87 °F 83 °F 95 °F (1999)
Min Temperature 59 °F 64 °F 56 °F (2013)
Degree Days  
Heating Degree Days 0 0  
Month to date heating degree days 0  
Since 1 June heating degree days 18  
Since 1 July heating degree days 0  
Cooling Degree Days 8 9  
Month to date cooling degree days 158  
Year to date cooling degree days 764  
Since 1 June cooling degree days 688  
Growing Degree Days 23 (Base 50)    
Moisture  
Dew Point 65 °F    
Average Humidity 83    
Maximum Humidity 100    
Minimum Humidity 46    
Precipitation  
Precipitation 0.00 in 0.09 in 0.64 in (2003)
Month to date precipitation 1.69  
Year to date precipitation 25.18  
Sea Level Pressure  
Sea Level Pressure 29.95 in    
Wind  
Wind Speed 2 mph (West)    
Max Wind Speed 15 mph    
Max Gust Speed 22 mph    
Visibility 10 miles    
Events      
T = Trace of Precipitation, MM = Missing Value Source: NWS Daily Summary

Daily Weather History Graph

Daily Weather History Graph

Search for Another Location

Airport or City:

Trip Planner

Search our weather history database for the weather conditions in past years. The results will help you decide how hot, cold, wet, or windy it might be!

Date:

Astronomy

Aug. 17, 2014 Rise Set
Actual Time 6:23 AM EDT 8:02 PM EDT
Civil Twilight 5:55 AM EDT 8:30 PM EDT
Nautical Twilight 5:20 AM EDT 9:05 PM EDT
Astronomical Twilight 4:44 AM EDT 9:41 PM EDT
Moon No Moon Rise 2:05 PM EDT (8/17)
Length of Visible Light 14h 35m
Length of Day
13h 38m
Waning Gibbous, 48% of the Moon is Illuminated
Aug 17
Waning Gibbous
Aug 25
New
Sep 2
First Quarter
Sep 8
Full
Sep 15
Last Quarter

Hourly Weather History & Observations

Time (EDT) Temp. Heat Index Dew Point Humidity Pressure Visibility Wind Dir Wind Speed Gust Speed Precip Events Conditions
12:00 AM 59.0 °F - 59.0 °F 100% 29.98 in 10.0 mi Calm Calm - N/A   Clear
12:20 AM 60.8 °F - 60.8 °F 100% 29.98 in 10.0 mi Calm Calm - N/A   Clear
12:40 AM - - - N/A% 29.97 in 10.0 mi Calm Calm - N/A   Clear
1:00 AM - - - N/A% 29.97 in 10.0 mi Calm Calm - N/A   Clear
1:20 AM - - - N/A% 29.96 in 10.0 mi Calm Calm - N/A   Mostly Cloudy
2:05 AM - - - N/A% 29.96 in 10.0 mi Calm Calm - N/A   Overcast
2:25 AM - - - N/A% 29.96 in 10.0 mi Calm Calm - N/A   Overcast
3:05 AM 62.6 °F - 62.6 °F 100% 29.95 in 10.0 mi SSE 3.5 mph - N/A   Overcast
4:25 AM 62.6 °F - 62.6 °F 100% 29.95 in 10.0 mi SSE 3.5 mph - N/A   Scattered Clouds
5:25 AM 60.8 °F - 60.8 °F 100% 29.94 in 10.0 mi Calm Calm - N/A   Clear
5:45 AM 60.8 °F - 60.8 °F 100% 29.94 in 10.0 mi Calm Calm - N/A   Clear
6:05 AM 62.6 °F - 62.6 °F 100% 29.94 in 10.0 mi Calm Calm - N/A   Clear
6:25 AM 60.8 °F - 60.8 °F 100% 29.94 in 10.0 mi Calm Calm - N/A   Clear
6:35 AM - - - N/A% 29.95 in 10.0 mi Calm Calm - N/A   Clear
6:45 AM - - - N/A% 29.95 in 10.0 mi Calm Calm - N/A   Clear
8:00 AM 69.8 °F - 66.2 °F 88% 29.96 in 10.0 mi Calm Calm - N/A   Clear
8:45 AM 71.6 °F - 64.4 °F 78% 29.96 in 10.0 mi South 4.6 mph - N/A   Clear
9:50 AM 78.8 °F - 66.2 °F 65% 29.96 in 10.0 mi Calm Calm - N/A   Clear
10:45 AM 82.4 °F 85.4 °F 68.0 °F 62% 29.96 in 10.0 mi WNW 12.7 mph 19.6 mph N/A   Clear
11:45 AM 84.2 °F 88.4 °F 69.8 °F 62% 29.95 in 10.0 mi WNW 15.0 mph 21.9 mph N/A   Scattered Clouds
12:50 PM 84.2 °F 87.3 °F 68.0 °F 58% 29.94 in 10.0 mi WNW 11.5 mph 18.4 mph N/A   Clear
1:50 PM 86.0 °F 89.4 °F 68.0 °F 55% 29.93 in 10.0 mi WNW 9.2 mph 16.1 mph N/A   Mostly Cloudy
2:45 PM 87.8 °F 91.4 °F 68.0 °F 52% 29.92 in 10.0 mi West 11.5 mph 17.3 mph N/A   Mostly Cloudy
4:45 PM 86.0 °F 88.2 °F 66.2 °F 51% 29.91 in 10.0 mi NNW 6.9 mph - N/A   Mostly Cloudy
5:45 PM 87.8 °F 89.4 °F 64.4 °F 46% 29.91 in 10.0 mi WNW 4.6 mph - N/A   Clear
6:45 PM 84.2 °F 85.6 °F 64.4 °F 51% 29.91 in 10.0 mi Calm Calm - N/A   Scattered Clouds
7:55 PM 73.4 °F - 69.8 °F 88% 29.93 in 10.0 mi Calm Calm - N/A   Clear
8:45 PM 69.8 °F - 68.0 °F 94% 29.94 in 10.0 mi Calm Calm - N/A   Scattered Clouds
9:25 PM 69.8 °F - 68.0 °F 94% 29.96 in 10.0 mi Calm Calm - N/A   Overcast
9:45 PM 69.8 °F - 68.0 °F 94% 29.96 in 10.0 mi Calm Calm - N/A   Overcast
10:05 PM 69.8 °F - 68.0 °F 94% 29.97 in 10.0 mi Calm Calm - N/A   Overcast
10:25 PM 69.8 °F - 68.0 °F 94% 29.97 in 10.0 mi Calm Calm - N/A   Scattered Clouds
10:45 PM 68.0 °F - 68.0 °F 100% 29.97 in 10.0 mi Calm Calm - N/A   Clear
11:05 PM 68.0 °F - 66.2 °F 94% 29.97 in 10.0 mi North 3.5 mph - N/A   Clear
11:25 PM 66.2 °F - 66.2 °F 100% 29.97 in 10.0 mi Calm Calm - N/A   Clear
11:45 PM 64.4 °F - 64.4 °F 100% 29.97 in 10.0 mi Calm Calm - N/A   Clear